Back to catalog

AIRSAT-07

AliveSciencePO
NORAD 63298·PAYLOAD·🇨🇳 China
This satellite name has not been confirmed by official sources yet.

Launched Mar 17, 2025 from Jiuquan Satellite Launch Center

Loading…

Next Passes (next 24 hours)

TLE

FreshSource: Space-Track

Epoch: Sep 14, 2026, 13:23 UTC

1 63298U 25055H   26257.55814395  .00051862  00000-0  10410-2 0  9997
2 63298  97.6642  48.5533 0005080 182.0771 178.0458 15.46501943 83227

Track AIRSAT-07 in real time with AllMySat

Download on the App Store